Wetterdaten: Woche 20.03.17 - 26.03.17 (KW12)
Datum Zeit Temperatur Luftfeuchte Luftdruck Niederschlag Windrichtung Sonnenschein Solar Wind
20.03.2017 00:00 8,8 C 88 % 1012,1 hPa 0,0 l/m SW 0,00 h 0 W/m 2,8 km/h (1 Bft)
20.03.2017 01:00 8,0 C 91 % 1012,0 hPa 0,0 l/m SW 0,00 h 0 W/m 1,7 km/h (1 Bft)
20.03.2017 02:00 7,4 C 94 % 1011,8 hPa 0,0 l/m SW 0,00 h 0 W/m 10,5 km/h (2 Bft)
20.03.2017 03:00 8,0 C 95 % 1011,7 hPa 0,0 l/m W-SW 0,00 h 0 W/m 13,8 km/h (3 Bft)
20.03.2017 04:00 8,4 C 94 % 1011,7 hPa 0,0 l/m W-SW 0,00 h 0 W/m 6,2 km/h (2 Bft)
20.03.2017 05:00 8,4 C 93 % 1011,8 hPa 0,0 l/m W-SW 0,00 h 0 W/m 10,2 km/h (2 Bft)
20.03.2017 06:00 8,6 C 92 % 1012,1 hPa 0,0 l/m W-SW 0,00 h 7 W/m 9,0 km/h (2 Bft)
20.03.2017 07:00 8,3 C 94 % 1012,4 hPa 0,0 l/m W-SW 0,00 h 34 W/m 6,7 km/h (2 Bft)
20.03.2017 08:00 9,2 C 91 % 1012,3 hPa 0,0 l/m W-SW 0,00 h 112 W/m 10,5 km/h (2 Bft)
20.03.2017 09:00 10,2 C 84 % 1012,2 hPa 0,0 l/m SW 0,00 h 155 W/m 12,5 km/h (3 Bft)
20.03.2017 10:00 10,8 C 83 % 1012,1 hPa 0,0 l/m SW 0,08 h 260 W/m 14,0 km/h (3 Bft)
20.03.2017 11:00 11,8 C 79 % 1011,6 hPa 0,0 l/m SW 0,67 h 402 W/m 20,4 km/h (4 Bft)
20.03.2017 12:00 12,5 C 76 % 1011,0 hPa 0,0 l/m W-SW 0,25 h 326 W/m 21,2 km/h (4 Bft)
20.03.2017 13:00 12,8 C 74 % 1010,4 hPa 0,0 l/m W-SW 0,17 h 345 W/m 22,8 km/h (4 Bft)
20.03.2017 14:00 13,6 C 70 % 1009,6 hPa 0,0 l/m W 0,92 h 509 W/m 24,0 km/h (4 Bft)
20.03.2017 15:00 13,9 C 69 % 1009,0 hPa 0,0 l/m SW 1,00 h 401 W/m 23,2 km/h (4 Bft)
20.03.2017 16:00 13,5 C 69 % 1008,6 hPa 0,0 l/m W-SW 0,92 h 230 W/m 21,4 km/h (4 Bft)
20.03.2017 17:00 12,7 C 71 % 1008,5 hPa 0,0 l/m W-SW 0,25 h 85 W/m 21,2 km/h (4 Bft)
20.03.2017 18:00 11,4 C 75 % 1008,5 hPa 0,0 l/m W-SW 0,00 h 17 W/m 12,9 km/h (3 Bft)
20.03.2017 19:00 10,1 C 78 % 1008,8 hPa 0,0 l/m W-SW 0,00 h 0 W/m 8,2 km/h (2 Bft)
20.03.2017 20:00 8,8 C 83 % 1009,3 hPa 0,0 l/m N 0,00 h 0 W/m 1,5 km/h (1 Bft)
20.03.2017 21:00 7,8 C 87 % 1009,4 hPa 0,0 l/m W-SW 0,00 h 0 W/m 2,5 km/h (1 Bft)
20.03.2017 22:00 7,8 C 89 % 1009,6 hPa 0,0 l/m N 0,00 h 0 W/m 0,0 km/h (0 Bft)
20.03.2017 23:00 8,0 C 90 % 1009,8 hPa 0,0 l/m N 0,00 h 0 W/m 0,3 km/h (0 Bft)
21.03.2017 00:00 8,0 C 91 % 1009,9 hPa 0,0 l/m N 0,00 h 0 W/m 0,0 km/h (0 Bft)
21.03.2017 01:00 7,9 C 91 % 1009,8 hPa 0,0 l/m W-SW 0,00 h 0 W/m 4,4 km/h (1 Bft)
21.03.2017 02:00 7,9 C 91 % 1009,9 hPa 0,0 l/m W-SW 0,00 h 0 W/m 7,1 km/h (2 Bft)
21.03.2017 03:00 7,8 C 91 % 1009,8 hPa 0,0 l/m W-SW 0,00 h 0 W/m 6,0 km/h (2 Bft)
21.03.2017 04:00 7,6 C 88 % 1010,1 hPa 0,0 l/m W-SW 0,00 h 0 W/m 10,3 km/h (2 Bft)
21.03.2017 05:00 7,3 C 85 % 1010,2 hPa 0,0 l/m SW 0,00 h 0 W/m 14,2 km/h (3 Bft)
21.03.2017 06:00 6,7 C 84 % 1010,3 hPa 0,0 l/m SW 0,00 h 17 W/m 8,6 km/h (2 Bft)
21.03.2017 07:00 6,3 C 86 % 1010,4 hPa 0,0 l/m S-SW 0,50 h 111 W/m 5,1 km/h (1 Bft)
21.03.2017 08:00 8,0 C 83 % 1010,5 hPa 0,0 l/m SW 0,67 h 249 W/m 14,4 km/h (3 Bft)
21.03.2017 09:00 9,1 C 79 % 1010,4 hPa 0,0 l/m W-SW 0,58 h 294 W/m 19,3 km/h (3 Bft)
21.03.2017 10:00 10,5 C 72 % 1010,1 hPa 0,0 l/m W 1,00 h 452 W/m 23,6 km/h (4 Bft)
21.03.2017 11:00 11,4 C 68 % 1009,7 hPa 0,0 l/m W 0,50 h 403 W/m 22,6 km/h (4 Bft)
21.03.2017 12:00 12,5 C 65 % 1009,2 hPa 0,0 l/m W 0,75 h 490 W/m 21,6 km/h (4 Bft)
21.03.2017 13:00 12,6 C 64 % 1008,3 hPa 0,0 l/m W-SW 0,08 h 294 W/m 17,7 km/h (3 Bft)
21.03.2017 14:00 12,7 C 65 % 1007,9 hPa 0,0 l/m SW 0,25 h 301 W/m 15,7 km/h (3 Bft)
21.03.2017 15:00 13,0 C 64 % 1007,6 hPa 0,0 l/m SW 0,92 h 343 W/m 14,9 km/h (3 Bft)
21.03.2017 16:00 12,9 C 65 % 1007,6 hPa 0,0 l/m SW 0,25 h 165 W/m 12,2 km/h (2 Bft)
21.03.2017 17:00 12,5 C 67 % 1007,8 hPa 0,0 l/m SW 0,17 h 71 W/m 10,3 km/h (2 Bft)
21.03.2017 18:00 11,3 C 72 % 1008,6 hPa 0,0 l/m N 0,00 h 6 W/m 10,2 km/h (2 Bft)
21.03.2017 19:00 10,0 C 77 % 1009,3 hPa 0,0 l/m N-NW 0,00 h 0 W/m 6,8 km/h (2 Bft)
21.03.2017 20:00 9,2 C 80 % 1009,9 hPa 0,0 l/m N 0,00 h 0 W/m 12,5 km/h (3 Bft)
21.03.2017 21:00 7,5 C 84 % 1010,3 hPa 0,0 l/m N-NO 0,00 h 0 W/m 16,8 km/h (3 Bft)
21.03.2017 22:00 6,7 C 86 % 1010,5 hPa 0,0 l/m N-NO 0,00 h 0 W/m 11,7 km/h (2 Bft)
21.03.2017 23:00 6,4 C 86 % 1010,6 hPa 0,0 l/m NO 0,00 h 0 W/m 12,2 km/h (2 Bft)
22.03.2017 00:00 6,1 C 87 % 1010,6 hPa 0,0 l/m NO 0,00 h 0 W/m 11,7 km/h (2 Bft)
22.03.2017 01:00 5,6 C 90 % 1010,5 hPa 0,0 l/m N-NO 0,00 h 0 W/m 13,3 km/h (3 Bft)
22.03.2017 02:00 5,0 C 93 % 1010,2 hPa 0,0 l/m N-NO 0,00 h 0 W/m 9,0 km/h (2 Bft)
22.03.2017 03:00 4,8 C 94 % 1009,9 hPa 0,0 l/m NO 0,00 h 0 W/m 9,5 km/h (2 Bft)
22.03.2017 04:00 4,4 C 94 % 1009,9 hPa 0,2 l/m N-NO 0,00 h 0 W/m 12,9 km/h (3 Bft)
22.03.2017 05:00 3,8 C 95 % 1010,0 hPa 0,2 l/m NO 0,00 h 0 W/m 11,8 km/h (2 Bft)
22.03.2017 06:00 3,6 C 96 % 1010,1 hPa 0,0 l/m NO 0,00 h 6 W/m 11,1 km/h (2 Bft)
22.03.2017 07:00 3,3 C 96 % 1010,4 hPa 0,0 l/m N-NO 0,00 h 11 W/m 8,0 km/h (2 Bft)
22.03.2017 08:00 3,3 C 96 % 1010,6 hPa 0,0 l/m N-NO 0,00 h 23 W/m 9,0 km/h (2 Bft)
22.03.2017 09:00 3,4 C 97 % 1011,0 hPa 0,0 l/m N-NO 0,00 h 47 W/m 7,9 km/h (2 Bft)
22.03.2017 10:00 3,9 C 97 % 1011,4 hPa 0,0 l/m N-NO 0,00 h 100 W/m 4,9 km/h (1 Bft)
22.03.2017 11:00 4,5 C 96 % 1011,4 hPa 0,0 l/m N 0,00 h 129 W/m 2,8 km/h (1 Bft)
22.03.2017 12:00 4,9 C 96 % 1011,3 hPa 0,0 l/m NO 0,00 h 135 W/m 1,3 km/h (1 Bft)
22.03.2017 13:00 5,6 C 95 % 1011,2 hPa 0,0 l/m N 0,00 h 137 W/m 0,4 km/h (0 Bft)
22.03.2017 14:00 6,2 C 93 % 1011,0 hPa 0,0 l/m N 0,00 h 130 W/m 0,0 km/h (0 Bft)
22.03.2017 15:00 6,5 C 91 % 1011,0 hPa 0,0 l/m N 0,00 h 113 W/m 0,0 km/h (0 Bft)
22.03.2017 16:00 6,9 C 89 % 1010,8 hPa 0,0 l/m N 0,00 h 79 W/m 0,0 km/h (0 Bft)
22.03.2017 17:00 6,8 C 89 % 1010,7 hPa 0,0 l/m NO 0,00 h 20 W/m 0,1 km/h (0 Bft)
22.03.2017 18:00 6,7 C 91 % 1010,6 hPa 0,2 l/m NO 0,00 h 9 W/m 7,1 km/h (2 Bft)
22.03.2017 19:00 6,3 C 92 % 1010,6 hPa 0,0 l/m NO 0,00 h 0 W/m 9,2 km/h (2 Bft)
22.03.2017 20:00 6,1 C 93 % 1010,8 hPa 0,0 l/m N-NO 0,00 h 0 W/m 10,6 km/h (2 Bft)
22.03.2017 21:00 6,0 C 94 % 1010,9 hPa 0,0 l/m N-NO 0,00 h 0 W/m 12,1 km/h (2 Bft)
22.03.2017 22:00 6,0 C 95 % 1011,1 hPa 0,0 l/m N-NO 0,00 h 0 W/m 10,2 km/h (2 Bft)
22.03.2017 23:00 5,9 C 96 % 1011,4 hPa 0,0 l/m N-NO 0,00 h 0 W/m 4,7 km/h (1 Bft)
23.03.2017 00:00 5,9 C 97 % 1011,8 hPa 0,0 l/m N-NO 0,00 h 0 W/m 2,7 km/h (1 Bft)
23.03.2017 01:00 5,9 C 97 % 1012,4 hPa 0,2 l/m N-NW 0,00 h 0 W/m 5,9 km/h (2 Bft)
23.03.2017 02:00 5,9 C 98 % 1012,4 hPa 0,0 l/m N 0,00 h 0 W/m 1,3 km/h (1 Bft)
23.03.2017 03:00 5,8 C 98 % 1012,4 hPa 0,0 l/m N 0,00 h 0 W/m 0,8 km/h (0 Bft)
23.03.2017 04:00 5,8 C 98 % 1012,7 hPa 0,0 l/m N 0,00 h 0 W/m 0,0 km/h (0 Bft)
23.03.2017 05:00 5,7 C 98 % 1012,7 hPa 0,0 l/m N 0,00 h 0 W/m 0,0 km/h (0 Bft)
23.03.2017 06:00 5,7 C 98 % 1012,6 hPa 0,0 l/m SW 0,08 h 19 W/m 5,2 km/h (1 Bft)
23.03.2017 07:00 5,9 C 98 % 1012,7 hPa 0,0 l/m SW 0,50 h 114 W/m 7,9 km/h (2 Bft)
23.03.2017 08:00 6,9 C 97 % 1012,8 hPa 0,0 l/m SW 0,50 h 240 W/m 7,4 km/h (2 Bft)
23.03.2017 09:00 8,2 C 92 % 1013,0 hPa 0,0 l/m SW 0,58 h 355 W/m 4,8 km/h (1 Bft)
23.03.2017 10:00 11,0 C 83 % 1012,7 hPa 0,0 l/m O-NO 0,92 h 598 W/m 13,3 km/h (3 Bft)
23.03.2017 11:00 13,3 C 72 % 1012,4 hPa 0,0 l/m O 0,92 h 645 W/m 15,2 km/h (3 Bft)
23.03.2017 12:00 14,4 C 67 % 1012,0 hPa 0,0 l/m O-NO 1,00 h 641 W/m 18,1 km/h (3 Bft)
23.03.2017 13:00 15,4 C 63 % 1011,6 hPa 0,0 l/m O-NO 1,00 h 631 W/m 19,8 km/h (4 Bft)
23.03.2017 14:00 16,4 C 61 % 1011,1 hPa 0,0 l/m O 1,00 h 554 W/m 22,0 km/h (4 Bft)
23.03.2017 15:00 16,2 C 64 % 1010,9 hPa 0,0 l/m O-NO 1,00 h 423 W/m 20,9 km/h (4 Bft)
23.03.2017 16:00 15,6 C 67 % 1010,7 hPa 0,0 l/m NO 1,00 h 247 W/m 21,7 km/h (4 Bft)
23.03.2017 17:00 14,5 C 72 % 1010,9 hPa 0,0 l/m NO 0,42 h 93 W/m 20,2 km/h (4 Bft)
23.03.2017 18:00 12,1 C 80 % 1011,8 hPa 0,0 l/m NO 0,00 h 13 W/m 16,4 km/h (3 Bft)
23.03.2017 19:00 9,9 C 87 % 1012,8 hPa 0,0 l/m N-NO 0,00 h 0 W/m 10,9 km/h (2 Bft)
23.03.2017 20:00 9,3 C 88 % 1013,6 hPa 0,0 l/m O-NO 0,00 h 0 W/m 15,0 km/h (3 Bft)
23.03.2017 21:00 8,9 C 89 % 1014,0 hPa 0,0 l/m O-NO 0,00 h 0 W/m 15,0 km/h (3 Bft)
23.03.2017 22:00 8,5 C 90 % 1014,5 hPa 0,0 l/m O-NO 0,00 h 0 W/m 15,3 km/h (3 Bft)
23.03.2017 23:00 8,2 C 91 % 1015,0 hPa 0,0 l/m NO 0,00 h 0 W/m 16,5 km/h (3 Bft)
24.03.2017 00:00 8,1 C 92 % 1015,5 hPa 0,0 l/m O-NO 0,00 h 0 W/m 12,5 km/h (3 Bft)
24.03.2017 01:00 7,9 C 92 % 1016,3 hPa 0,0 l/m O-NO 0,00 h 0 W/m 15,4 km/h (3 Bft)
24.03.2017 02:00 7,4 C 93 % 1016,9 hPa 0,0 l/m O-NO 0,00 h 0 W/m 15,7 km/h (3 Bft)
24.03.2017 03:00 7,1 C 93 % 1017,6 hPa 0,0 l/m O-NO 0,00 h 0 W/m 13,0 km/h (3 Bft)
24.03.2017 04:00 6,8 C 93 % 1018,2 hPa 0,0 l/m O 0,00 h 0 W/m 9,3 km/h (2 Bft)
24.03.2017 05:00 6,6 C 94 % 1019,0 hPa 0,0 l/m O-NO 0,00 h 0 W/m 11,3 km/h (2 Bft)
24.03.2017 06:00 6,4 C 94 % 1018,9 hPa 0,0 l/m O-NO 0,00 h 10 W/m 12,0 km/h (2 Bft)
24.03.2017 07:00 6,4 C 94 % 1019,4 hPa 0,0 l/m O 0,00 h 31 W/m 13,3 km/h (3 Bft)
24.03.2017 08:00 6,5 C 94 % 1020,0 hPa 0,0 l/m O 0,00 h 54 W/m 14,9 km/h (3 Bft)
24.03.2017 09:00 6,3 C 94 % 1020,7 hPa 0,0 l/m NO 0,00 h 109 W/m 15,4 km/h (3 Bft)
24.03.2017 10:00 6,6 C 94 % 1020,9 hPa 0,0 l/m NO 0,00 h 125 W/m 16,6 km/h (3 Bft)
24.03.2017 11:00 6,9 C 93 % 1021,0 hPa 0,0 l/m NO 0,00 h 147 W/m 18,6 km/h (3 Bft)
24.03.2017 12:00 7,1 C 92 % 1021,7 hPa 0,0 l/m NO 0,00 h 123 W/m 19,7 km/h (3 Bft)
24.03.2017 13:00 7,4 C 90 % 1022,1 hPa 0,0 l/m O-NO 0,00 h 144 W/m 21,4 km/h (4 Bft)
24.03.2017 14:00 7,3 C 91 % 1022,1 hPa 0,0 l/m O-NO 0,00 h 109 W/m 20,8 km/h (4 Bft)
24.03.2017 15:00 7,3 C 90 % 1022,6 hPa 0,0 l/m O-NO 0,00 h 68 W/m 19,0 km/h (3 Bft)
24.03.2017 16:00 7,5 C 90 % 1022,8 hPa 0,0 l/m O-NO 0,00 h 55 W/m 20,2 km/h (4 Bft)
24.03.2017 17:00 7,6 C 90 % 1022,9 hPa 0,0 l/m O-NO 0,00 h 20 W/m 21,8 km/h (4 Bft)
24.03.2017 18:00 7,7 C 90 % 1023,3 hPa 0,0 l/m O-NO 0,00 h 8 W/m 20,1 km/h (4 Bft)
24.03.2017 19:00 7,7 C 89 % 1023,8 hPa 0,0 l/m O 0,00 h 0 W/m 21,7 km/h (4 Bft)
24.03.2017 20:00 7,4 C 88 % 1024,2 hPa 0,0 l/m O-NO 0,00 h 0 W/m 22,4 km/h (4 Bft)
24.03.2017 21:00 7,4 C 88 % 1024,3 hPa 0,0 l/m O-NO 0,00 h 0 W/m 21,3 km/h (4 Bft)
24.03.2017 22:00 7,4 C 87 % 1024,5 hPa 0,0 l/m O 0,00 h 0 W/m 20,9 km/h (4 Bft)
24.03.2017 23:00 7,3 C 87 % 1024,6 hPa 0,0 l/m O 0,00 h 0 W/m 21,7 km/h (4 Bft)
25.03.2017 00:00 7,2 C 88 % 1024,4 hPa 0,0 l/m O-NO 0,00 h 0 W/m 19,2 km/h (3 Bft)
25.03.2017 01:00 6,8 C 88 % 1024,3 hPa 0,0 l/m O 0,00 h 0 W/m 21,7 km/h (4 Bft)
25.03.2017 02:00 6,4 C 88 % 1024,0 hPa 0,0 l/m O-NO 0,00 h 0 W/m 18,1 km/h (3 Bft)
25.03.2017 03:00 6,2 C 88 % 1023,7 hPa 0,0 l/m O-NO 0,00 h 0 W/m 18,6 km/h (3 Bft)
25.03.2017 04:00 6,0 C 88 % 1023,2 hPa 0,0 l/m O-NO 0,00 h 0 W/m 22,5 km/h (4 Bft)
25.03.2017 05:00 5,8 C 88 % 1023,0 hPa 0,0 l/m O 0,00 h 0 W/m 18,9 km/h (3 Bft)
25.03.2017 06:00 5,6 C 89 % 1023,2 hPa 0,0 l/m O-NO 0,00 h 11 W/m 16,1 km/h (3 Bft)
25.03.2017 07:00 5,5 C 89 % 1023,2 hPa 0,0 l/m O-NO 0,00 h 37 W/m 21,7 km/h (4 Bft)
25.03.2017 08:00 5,8 C 87 % 1023,0 hPa 0,0 l/m O 0,00 h 128 W/m 20,4 km/h (4 Bft)
25.03.2017 09:00 6,6 C 84 % 1023,0 hPa 0,0 l/m NO 0,08 h 214 W/m 20,8 km/h (4 Bft)
25.03.2017 10:00 7,0 C 82 % 1022,8 hPa 0,0 l/m O-NO 0,12 h 267 W/m 20,8 km/h (4 Bft)
25.03.2017 11:00 8,5 C 78 % 1022,1 hPa 0,0 l/m O 0,67 h 563 W/m 24,4 km/h (4 Bft)
25.03.2017 12:00 11,0 C 67 % 1021,3 hPa 0,0 l/m O 1,00 h 664 W/m 28,0 km/h (4 Bft)
25.03.2017 13:00 12,2 C 60 % 1020,3 hPa 0,0 l/m O 1,00 h 635 W/m 30,9 km/h (5 Bft)
25.03.2017 14:00 13,5 C 56 % 1019,3 hPa 0,0 l/m O 1,00 h 556 W/m 26,5 km/h (4 Bft)
25.03.2017 15:00 13,8 C 50 % 1018,7 hPa 0,0 l/m O-NO 1,00 h 423 W/m 27,3 km/h (4 Bft)
25.03.2017 16:00 13,5 C 50 % 1018,0 hPa 0,0 l/m O-NO 1,00 h 283 W/m 27,2 km/h (4 Bft)
25.03.2017 17:00 12,8 C 50 % 1017,6 hPa 0,0 l/m O 0,50 h 109 W/m 26,0 km/h (4 Bft)
25.03.2017 18:00 11,2 C 57 % 1017,4 hPa 0,0 l/m O-NO 0,17 h 18 W/m 21,4 km/h (4 Bft)
25.03.2017 19:00 9,8 C 63 % 1017,6 hPa 0,0 l/m NO 0,00 h 0 W/m 14,5 km/h (3 Bft)
25.03.2017 20:00 8,7 C 68 % 1017,7 hPa 0,0 l/m NO 0,00 h 0 W/m 14,4 km/h (3 Bft)
25.03.2017 21:00 8,0 C 68 % 1017,6 hPa 0,0 l/m NO 0,00 h 0 W/m 12,5 km/h (3 Bft)
25.03.2017 22:00 7,0 C 72 % 1017,4 hPa 0,0 l/m NO 0,00 h 0 W/m 12,1 km/h (2 Bft)
25.03.2017 23:00 6,6 C 77 % 1017,3 hPa 0,0 l/m NO 0,00 h 0 W/m 14,6 km/h (3 Bft)
26.03.2017 00:00 5,9 C 78 % 1017,0 hPa 0,0 l/m NO 0,00 h 0 W/m 8,9 km/h (2 Bft)
26.03.2017 01:00 5,0 C 81 % 1016,7 hPa 0,0 l/m N-NO 0,00 h 0 W/m 13,2 km/h (3 Bft)
26.03.2017 03:00 4,6 C 81 % 1016,3 hPa 0,0 l/m NO 0,00 h 0 W/m 15,6 km/h (3 Bft)
26.03.2017 04:00 4,0 C 82 % 1016,4 hPa 0,0 l/m NO 0,00 h 0 W/m 11,4 km/h (2 Bft)
26.03.2017 05:00 2,9 C 86 % 1016,7 hPa 0,0 l/m N-NO 0,00 h 0 W/m 7,4 km/h (2 Bft)
26.03.2017 06:00 2,2 C 88 % 1017,4 hPa 0,0 l/m N 0,00 h 0 W/m 4,3 km/h (1 Bft)
26.03.2017 07:00 1,9 C 89 % 1018,1 hPa 0,0 l/m N 0,00 h 23 W/m 4,8 km/h (1 Bft)
26.03.2017 08:00 2,7 C 88 % 1018,9 hPa 0,0 l/m N-NO 0,25 h 111 W/m 5,2 km/h (1 Bft)
26.03.2017 09:00 4,7 C 82 % 1019,3 hPa 0,0 l/m N-NO 1,00 h 357 W/m 9,8 km/h (2 Bft)
26.03.2017 10:00 6,9 C 73 % 1019,5 hPa 0,0 l/m O-SO 1,00 h 471 W/m 12,2 km/h (2 Bft)
26.03.2017 11:00 8,3 C 70 % 1019,7 hPa 0,0 l/m O-NO 0,92 h 528 W/m 7,1 km/h (2 Bft)
26.03.2017 12:00 9,9 C 66 % 1019,9 hPa 0,0 l/m O 1,00 h 597 W/m 10,5 km/h (2 Bft)
26.03.2017 13:00 11,6 C 62 % 1019,7 hPa 0,0 l/m NO 1,00 h 652 W/m 13,3 km/h (3 Bft)
26.03.2017 14:00 12,7 C 57 % 1019,4 hPa 0,0 l/m O-NO 0,67 h 506 W/m 15,6 km/h (3 Bft)
26.03.2017 15:00 12,8 C 56 % 1019,2 hPa 0,0 l/m O 0,33 h 339 W/m 15,2 km/h (3 Bft)
26.03.2017 16:00 12,4 C 54 % 1019,2 hPa 0,0 l/m SO 0,17 h 239 W/m 15,6 km/h (3 Bft)
26.03.2017 17:00 12,1 C 56 % 1019,5 hPa 0,0 l/m O-SO 0,17 h 114 W/m 16,0 km/h (3 Bft)
26.03.2017 18:00 11,2 C 57 % 1019,7 hPa 0,0 l/m O-SO 0,00 h 83 W/m 14,6 km/h (3 Bft)
26.03.2017 19:00 10,2 C 59 % 1020,1 hPa 0,0 l/m O 0,08 h 18 W/m 9,0 km/h (2 Bft)
26.03.2017 20:00 8,2 C 66 % 1020,6 hPa 0,0 l/m N 0,00 h 0 W/m 1,7 km/h (1 Bft)
26.03.2017 21:00 7,1 C 64 % 1021,2 hPa 0,0 l/m O 0,00 h 0 W/m 8,0 km/h (2 Bft)
26.03.2017 22:00 5,7 C 66 % 1021,7 hPa 0,0 l/m O 0,00 h 0 W/m 2,0 km/h (1 Bft)
26.03.2017 23:00 4,6 C 70 % 1021,9 hPa 0,0 l/m N 0,00 h 0 W/m 1,5 km/h (1 Bft)
Min-Datum _ 26.03.17 25.03.17 21.03.17 - - - - 20.03.17
_ Min-Zeit 07:05 15:55 16:05 - - - - 00:20
Minimum _ 1,8 C 48 % 1007,4 hPa - - - - 0,0 km/h (0 Bft)
Max-Datum _ 23.03.17 23.03.17 24.03.17 22.03.17 - 25.03.17 23.03.17 25.03.17
_ Max-Zeit 14:35 07:35 23:40 04:00 - 13:10 10:20 13:20
Maximum _ 16,8 C 99 % 1024,7 hPa 0,2 l/m - 0,17 h 761 W/m 37,0 km/h
O (5 Bft)
Durchschnitt _ 8,2 C 82 % 1014,9 hPa #0,8 l/m O-NO #31:57 h 226 W/m 12,9 km/h (3 Bft)